Previsão horária em Seni

Hoje, 30 Novembro, Segunda-feira

Tempo Temperatura Precipitação Vento Pressão Humidade
00:00 +5°C° 0.1 mm 1 m/s 759 mmHg 89%
01:00 +4°C° 0.1 mm 2 m/s 759 mmHg 89%
02:00 +4°C° 0 mm 2 m/s 760 mmHg 89%
03:00 +3°C° 0.1 mm 3 m/s 760 mmHg 90%
04:00 +2°C° 0.1 mm 3 m/s 760 mmHg 91%
05:00 +2°C° 0.1 mm 3 m/s 760 mmHg 93%
06:00 +2°C° 0.2 mm 3 m/s 760 mmHg 93%
07:00 +2°C° 0.2 mm 3 m/s 760 mmHg 93%
08:00 +1°C° 0 mm 3 m/s 760 mmHg 93%
09:00 +2°C° 0.1 mm 3 m/s 761 mmHg 92%
10:00 +2°C° 0.1 mm 3 m/s 761 mmHg 92%
11:00 +2°C° 0.1 mm 3 m/s 761 mmHg 91%
12:00 +2°C° 0.1 mm 3 m/s 761 mmHg 91%
13:00 +2°C° 0.1 mm 3 m/s 761 mmHg 90%
14:00 +3°C° 0.1 mm 3 m/s 760 mmHg 89%
15:00 +3°C° 0.1 mm 3 m/s 761 mmHg 89%
16:00 +3°C° 0.1 mm 3 m/s 761 mmHg 89%
17:00 +3°C° 0.1 mm 3 m/s 761 mmHg 88%
18:00 +3°C° 0 mm 3 m/s 761 mmHg 86%
19:00 +3°C° 0 mm 3 m/s 761 mmHg 84%
20:00 +3°C° 0 mm 3 m/s 761 mmHg 82%
21:00 +4°C° 0 mm 2 m/s 761 mmHg 82%
22:00 +4°C° 0 mm 2 m/s 761 mmHg 81%
23:00 +5°C° 0 mm 1 m/s 761 mmHg 81%

Amanhã, 1 Dezembro, Terça-feira

Tempo Temperatura Precipitação Vento Pressão Humidade
00:00 +4°C° 0 mm 2 m/s 761 mmHg 81%
01:00 +4°C° 0 mm 2 m/s 761 mmHg 82%
02:00 +4°C° 0 mm 2 m/s 761 mmHg 82%
03:00 +4°C° 0 mm 2 m/s 761 mmHg 82%
04:00 +4°C° 0 mm 2 m/s 761 mmHg 82%
05:00 +3°C° 0 mm 3 m/s 761 mmHg 82%
06:00 +3°C° 0 mm 3 m/s 761 mmHg 79%
07:00 +3°C° 0 mm 4 m/s 761 mmHg 77%
08:00 +3°C° 0 mm 4 m/s 761 mmHg 75%
09:00 +1°C° 0 mm 4 m/s 761 mmHg 73%
10:00 +1°C° 0 mm 4 m/s 762 mmHg 71%
11:00 +1°C° 0 mm 4 m/s 762 mmHg 69%
12:00 +1°C° 0 mm 5 m/s 762 mmHg 69%
13:00 +1°C° 0 mm 5 m/s 762 mmHg 68%
14:00 +1°C° 0 mm 5 m/s 762 mmHg 68%
15:00 +1°C° 0 mm 5 m/s 762 mmHg 69%
16:00 +1°C° 0 mm 5 m/s 762 mmHg 71%
17:00 0°C° 0 mm 5 m/s 762 mmHg 72%
18:00 0°C° 0 mm 5 m/s 762 mmHg 73%
19:00 0°C° 0 mm 5 m/s 762 mmHg 74%
20:00 -1°C° 0 mm 5 m/s 763 mmHg 75%
21:00 -1°C° 0 mm 5 m/s 763 mmHg 75%
22:00 -1°C° 0 mm 5 m/s 763 mmHg 75%
23:00 -1°C° 0 mm 5 m/s 763 mmHg 75%

Depois de amanhã, 2 Dezembro, Quarta-feira

Tempo Temperatura Precipitação Vento Pressão Humidade
00:00 -1°C° 0 mm 5 m/s 763 mmHg 77%
01:00 -1°C° 0 mm 5 m/s 763 mmHg 79%
02:00 -2°C° 0 mm 5 m/s 763 mmHg 81%
03:00 -2°C° 0 mm 5 m/s 763 mmHg 83%
04:00 -2°C° 0 mm 5 m/s 763 mmHg 85%
05:00 -4°C° 0 mm 5 m/s 762 mmHg 88%
06:00 -4°C° 0 mm 5 m/s 763 mmHg 87%
07:00 -4°C° 0 mm 5 m/s 763 mmHg 86%
08:00 -4°C° 0 mm 5 m/s 763 mmHg 84%
09:00 -4°C° 0 mm 5 m/s 763 mmHg 83%
10:00 -4°C° 0 mm 5 m/s 763 mmHg 83%
11:00 -2°C° 0 mm 5 m/s 763 mmHg 82%
12:00 -2°C° 0.1 mm 5 m/s 763 mmHg 85%
13:00 -2°C° 0.1 mm 5 m/s 762 mmHg 88%
14:00 -1°C° 0.1 mm 5 m/s 762 mmHg 91%
15:00 -2°C° 0.1 mm 5 m/s 762 mmHg 91%
16:00 -2°C° 0.1 mm 5 m/s 762 mmHg 92%
17:00 -2°C° 0.1 mm 5 m/s 762 mmHg 93%
18:00 -2°C° 0.3 mm 5 m/s 762 mmHg 94%
19:00 -2°C° 0.3 mm 5 m/s 762 mmHg 94%
20:00 -2°C° 0.3 mm 5 m/s 762 mmHg 95%
21:00 -2°C° 0.3 mm 5 m/s 762 mmHg 95%
22:00 -2°C° 0.3 mm 4 m/s 762 mmHg 96%
23:00 -2°C° 0.3 mm 4 m/s 761 mmHg 96%

3 Dezembro, Quinta-feira

Tempo Temperatura Precipitação Vento Pressão Humidade
00:00 -2°C° 0.3 mm 4 m/s 761 mmHg 96%
01:00 -2°C° 0.3 mm 4 m/s 761 mmHg 96%
02:00 -2°C° 0.3 mm 4 m/s 761 mmHg 96%
03:00 -2°C° 0.2 mm 4 m/s 761 mmHg 96%
04:00 -2°C° 0.2 mm 4 m/s 761 mmHg 96%
05:00 -2°C° 0.2 mm 4 m/s 761 mmHg 96%
06:00 -2°C° 0.1 mm 4 m/s 761 mmHg 96%
07:00 -1°C° 0.1 mm 4 m/s 761 mmHg 96%
08:00 0°C° 0.1 mm 3 m/s 761 mmHg 96%
09:00 0°C° 0.1 mm 3 m/s 761 mmHg 96%
10:00 +1°C° 0.1 mm 3 m/s 761 mmHg 97%
11:00 +1°C° 0.1 mm 3 m/s 761 mmHg 97%
12:00 +2°C° 0 mm 3 m/s 761 mmHg 97%
13:00 +2°C° 0 mm 3 m/s 761 mmHg 96%
14:00 +2°C° 0 mm 3 m/s 760 mmHg 96%
15:00 +2°C° 0 mm 3 m/s 760 mmHg 96%
16:00 +2°C° 0 mm 3 m/s 761 mmHg 96%
17:00 +2°C° 0 mm 3 m/s 761 mmHg 96%
18:00 +1°C° 0 mm 4 m/s 761 mmHg 95%
19:00 +1°C° 0 mm 4 m/s 761 mmHg 95%
20:00 +1°C° 0 mm 4 m/s 761 mmHg 94%
21:00 +1°C° 0 mm 4 m/s 761 mmHg 93%
22:00 +1°C° 0 mm 4 m/s 761 mmHg 93%
23:00 0°C° 0 mm 4 m/s 761 mmHg 92%

4 Dezembro, Sexta-feira

Tempo Temperatura Precipitação Vento Pressão Humidade
00:00 0°C° 0 mm 4 m/s 761 mmHg 93%
01:00 0°C° 0 mm 4 m/s 761 mmHg 93%
02:00 +1°C° 0 mm 3 m/s 761 mmHg 93%
03:00 +1°C° 0 mm 3 m/s 761 mmHg 93%
04:00 +1°C° 0 mm 3 m/s 761 mmHg 93%
05:00 +1°C° 0 mm 3 m/s 761 mmHg 94%
06:00 +1°C° 0 mm 3 m/s 761 mmHg 94%
07:00 +1°C° 0 mm 3 m/s 761 mmHg 94%
08:00 +1°C° 0 mm 3 m/s 761 mmHg 95%
09:00 0°C° 0 mm 4 m/s 761 mmHg 93%
10:00 +1°C° 0 mm 4 m/s 761 mmHg 91%
11:00 +1°C° 0 mm 4 m/s 760 mmHg 90%
12:00 +1°C° 0 mm 4 m/s 760 mmHg 88%
13:00 +1°C° 0 mm 5 m/s 760 mmHg 87%
14:00 +1°C° 0 mm 5 m/s 760 mmHg 86%
15:00 +1°C° 0 mm 5 m/s 760 mmHg 86%
16:00 +1°C° 0 mm 5 m/s 760 mmHg 85%
17:00 +1°C° 0 mm 5 m/s 760 mmHg 85%
18:00 +1°C° 0 mm 5 m/s 760 mmHg 85%
19:00 +1°C° 0 mm 5 m/s 760 mmHg 84%
20:00 +1°C° 0 mm 6 m/s 760 mmHg 84%
21:00 0°C° 0 mm 5 m/s 760 mmHg 84%
22:00 0°C° 0 mm 5 m/s 760 mmHg 84%
23:00 0°C° 0 mm 5 m/s 760 mmHg 85%

5 Dezembro, Sábado

Tempo Temperatura Precipitação Vento Pressão Humidade
00:00 -1°C° 0 mm 5 m/s 760 mmHg 85%
01:00 -1°C° 0 mm 5 m/s 760 mmHg 86%
02:00 -1°C° 0 mm 5 m/s 760 mmHg 87%
03:00 -2°C° 0 mm 5 m/s 760 mmHg 87%
04:00 -2°C° 0 mm 5 m/s 760 mmHg 87%
05:00 -2°C° 0 mm 5 m/s 760 mmHg 87%
06:00 -2°C° 0 mm 5 m/s 760 mmHg 86%
07:00 -2°C° 0 mm 5 m/s 761 mmHg 85%
08:00 -2°C° 0 mm 5 m/s 761 mmHg 83%
09:00 -2°C° 0 mm 5 m/s 761 mmHg 81%
10:00 -2°C° 0 mm 6 m/s 761 mmHg 78%
11:00 -2°C° 0 mm 6 m/s 761 mmHg 75%
12:00 -1°C° 0 mm 6 m/s 761 mmHg 74%
13:00 -1°C° 0 mm 6 m/s 761 mmHg 74%
14:00 +1°C° 0 mm 6 m/s 760 mmHg 73%
15:00 -1°C° 0 mm 6 m/s 761 mmHg 76%
16:00 -1°C° 0 mm 6 m/s 761 mmHg 78%
17:00 -1°C° 0 mm 5 m/s 761 mmHg 81%
18:00 -2°C° 0 mm 6 m/s 761 mmHg 82%
19:00 -3°C° 0 mm 6 m/s 761 mmHg 83%
20:00 -3°C° 0 mm 6 m/s 761 mmHg 84%
21:00 -3°C° 0 mm 6 m/s 762 mmHg 85%
22:00 -4°C° 0 mm 6 m/s 762 mmHg 86%
23:00 -4°C° 0 mm 6 m/s 762 mmHg 87%
Mostrar mais

Necessitamos do seu Consentimento

A Meteoprog e os seus Fornecedores de Serviços podem armazenar e aceder a dados pessoais como cookies, identificadores do dispositivo ou outras tecnologias semelhantes existentes no seu dispositivo e processar estes dados para personalizar conteúdos e anúncios, assim como funcionalidades nas redes sociais e análise de tráfego.

  • Armazenar e/ou aceder a informações no seu dispositivo

    Os cookies, identificadores do dispositivo ou outras informações podem ser armazenados ou acedidos no seu dispositivo, para os fins acima indicados.

  • Anúncios e conteúdos personalizados, medição de anúncios e conteúdos, dados sobre o público-alvo e desenvolvimento de produtos

    Os anúncios e os conteúdos podem ser personalizados com base num perfil. Podem ser adicionados dados adicionais para uma maior personalização dos anúncios e dos conteúdos. A eficácia dos anúncios e dos conteúdos pode ser medida. Podem ser obtidas informações sobre o público que visualizou os anúncios e os conteúdos. Estes dados podem ser usados para desenvolver ou melhorar sistemas, softwares ou a experiência do utilizador.

Ao clicar em "Eu concordo”, permitirá o uso de cookies, identificadores do dispositivo e web beacons mencionados ou outras tecnologias semelhantes. As configurações do navegador do seu dispositivo podem ser alteradas.

Para certos fins, podem ser invocados interesses legítimos ao invés de consentimento. Pode ler mais informação sobre este assunto na nossa Política de Privacidade e Cookies.